FW6992 Weather Reports


Display with metric or nautical units.
time (UTC)temp
F
wind
direction
speed
MPH
gust
MPH
rain 1hr
in
rain 24hr
in
rain mn
in
humidity
%
barometer
mb
20260506035553 65 251 0.0 0.0 0.00 0.00 0.00 54 1012.7
20260506035050 65 251 0.0 0.0 0.00 0.00 0.00 54 1012.9
20260506034547 65 194 0.0 1.0 0.00 0.00 0.00 53 1013.0
20260506034044 65 168 0.0 0.0 0.00 0.00 0.00 54 1012.9
20260506033541 65 168 0.0 0.0 0.00 0.00 0.00 53 1013.0
20260506033038 65 168 0.0 0.0 0.00 0.00 0.00 53 1013.0
20260506032535 65 168 0.0 0.0 0.00 0.00 0.00 53 1013.1
20260506032032 65 78 0.0 0.0 0.00 0.00 0.00 53 1013.1
20260506031530 65 163 0.0 0.0 0.00 0.00 0.00 53 1012.9
20260506031026 65 181 0.0 0.0 0.00 0.00 0.00 52 1013.0
20260506030525 65 181 0.0 0.0 0.00 0.00 0.00 52 1013.1
20260506030022 66 131 0.0 1.0 0.00 0.00 0.00 51 1013.0
20260506025518 66 187 0.0 0.0 0.00 0.00 0.00 51 1013.0
20260506025014 66 343 0.0 0.0 0.00 0.00 0.00 50 1013.2
20260506024512 67 325 0.0 0.0 0.00 0.00 0.00 49 1013.2
20260506024008 67 201 0.0 0.0 0.00 0.00 0.00 48 1013.1
20260506023504 68 34 0.0 0.0 0.00 0.00 0.00 47 1013.4
20260506023001 67 156 0.0 0.0 0.00 0.00 0.00 48 1013.2
20260506022459 67 330 0.0 2.0 0.00 0.00 0.00 47 1013.3
20260506021956 68 214 0.0 0.0 0.00 0.00 0.00 46 1013.1
20260506021454 68 163 0.0 0.0 0.00 0.00 0.00 46 1012.8
20260506020951 68 110 0.0 1.0 0.00 0.00 0.00 46 1013.0
20260506020448 68 330 0.0 0.0 0.00 0.00 0.00 46 1012.9
20260506015945 68 238 0.0 0.0 0.00 0.00 0.00 45 1013.0
20260506015443 68 223 0.0 0.0 0.00 0.00 0.00 45 1012.9
20260506014939 69 206 0.0 0.0 0.00 0.00 0.00 45 1012.9
20260506014436 69 216 0.0 0.0 0.00 0.00 0.00 44 1013.0
20260506013933 69 216 0.0 0.0 0.00 0.00 0.00 44 1013.1
20260506013431 69 212 0.0 0.0 0.00 0.00 0.00 44 1013.0
20260506012927 70 163 0.0 0.0 0.00 0.00 0.00 43 1013.0
20260506012424 70 216 0.0 1.0 0.00 0.00 0.00 42 1012.9
20260506011921 70 207 0.0 1.0 0.00 0.00 0.00 41 1012.8
20260506011418 71 256 0.0 0.0 0.00 0.00 0.00 41 1012.7
20260506010915 71 238 0.0 1.0 0.00 0.00 0.00 40 1012.6
20260506010414 72 194 0.0 1.0 0.00 0.00 0.00 39 1012.6
20260506005909 73 241 1.0 2.0 0.00 0.00 0.00 38 1012.5
20260506005408 72 253 1.0 2.0 0.00 0.00 0.00 39 1012.4
20260506004902 72 254 1.0 2.0 0.00 0.00 0.00 39 1012.2
20260506004400 73 250 0.0 2.0 0.00 0.00 0.00 38 1012.4
20260506003856 73 179 2.0 2.0 0.00 0.00 0.00 38 1012.1
20260506003353 73 221 0.0 1.0 0.00 0.00 0.00 38 1012.3
20260506002849 74 270 0.0 2.0 0.00 0.00 0.00 37 1012.3
20260506002345 74 58 0.0 2.0 0.00 0.00 0.00 36 1012.1
20260506001841 74 297 3.0 3.0 0.00 0.00 0.00 35 1012.3
20260506001338 74 350 0.0 1.0 0.00 0.00 0.00 35 1012.0
20260506000835 74 163 0.0 1.0 0.00 0.00 0.00 35 1012.1
20260506000333 75 276 0.0 2.0 0.00 0.00 0.00 35 1012.1
20260505235830 75 344 0.0 5.0 0.00 0.00 0.00 34 1012.0
20260505235327 76 226 0.0 2.0 0.00 0.00 0.00 34 1012.1
20260505234824 76 279 2.0 4.0 0.00 0.00 0.00 33 1012.1
20260505234322 76 110 0.0 2.0 0.00 0.00 0.00 34 1011.8
20260505233819 76 283 2.0 6.0 0.00 0.00 0.00 33 1011.7
20260505233316 76 253 2.0 2.0 0.00 0.00 0.00 34 1012.0
20260505232813 76 276 0.0 2.0 0.00 0.00 0.00 34 1011.9
20260505232311 76 251 0.0 2.0 0.00 0.00 0.00 33 1011.9
20260505231808 77 198 3.0 4.0 0.00 0.00 0.00 31 1012.0
20260505231306 77 183 1.0 4.0 0.00 0.00 0.00 32 1012.1
20260505230804 78 218 2.0 4.0 0.00 0.00 0.00 33 1011.7
20260505230300 78 38 1.0 2.0 0.00 0.00 0.00 31 1011.9
20260505225757 78 7 0.0 4.0 0.00 0.00 0.00 29 1011.8
20260505225254 78 214 0.0 4.0 0.00 0.00 0.00 32 1012.0
20260505224749 78 324 1.0 3.0 0.00 0.00 0.00 30 1011.9
20260505224247 78 106 1.0 3.0 0.00 0.00 0.00 31 1011.9
20260505223744 79 290 0.0 6.0 0.00 0.00 0.00 30 1011.9
20260505223241 79 83 0.0 2.0 0.00 0.00 0.00 30 1012.0
20260505222736 79 304 1.0 3.0 0.00 0.00 0.00 29 1011.7
20260505222233 79 312 3.0 3.0 0.00 0.00 0.00 29 1012.0
20260505221730 80 230 0.0 5.0 0.00 0.00 0.00 29 1012.1
20260505221227 80 272 2.0 4.0 0.00 0.00 0.00 28 1012.3
20260505220723 80 59 1.0 5.0 0.00 0.00 0.00 29 1012.2
20260505220221 80 281 2.0 11.0 0.00 0.00 0.00 28 1012.0
20260505215719 80 304 4.0 5.0 0.00 0.00 0.00 27 1012.0
20260505215217 80 288 2.0 4.0 0.00 0.00 0.00 27 1012.0
20260505214714 80 233 0.0 5.0 0.00 0.00 0.00 27 1011.9
20260505214212 81 10 1.0 2.0 0.00 0.00 0.00 26 1011.9
20260505213709 81 254 0.0 6.0 0.00 0.00 0.00 25 1011.7
20260505213206 81 307 9.0 9.0 0.00 0.00 0.00 23 1011.7
20260505212702 81 198 0.0 4.0 0.00 0.00 0.00 27 1011.8
20260505212159 81 188 2.0 5.0 0.00 0.00 0.00 28 1012.0
20260505211656 81 251 0.0 4.0 0.00 0.00 0.00 25 1011.9
20260505211153 80 325 2.0 5.0 0.00 0.00 0.00 26 1011.8
20260505210650 81 295 3.0 6.0 0.00 0.00 0.00 25 1011.6
20260505210147 82 303 1.0 4.0 0.00 0.00 0.00 24 1011.9
20260505205644 83 309 4.0 4.0 0.00 0.00 0.00 22 1011.8
20260505205142 81 330 2.0 5.0 0.00 0.00 0.00 21 1012.0
20260505204638 81 296 3.0 4.0 0.00 0.00 0.00 20 1011.9
20260505204137 82 43 0.0 4.0 0.00 0.00 0.00 23 1011.7
20260505203633 84 353 2.0 5.0 0.00 0.00 0.00 21 1011.7
20260505203130 84 316 2.0 4.0 0.00 0.00 0.00 24 1012.0
20260505202626 82 311 7.0 7.0 0.00 0.00 0.00 23 1011.6
20260505202122 83 303 7.0 8.0 0.00 0.00 0.00 24 1011.8
20260505201619 84 294 4.0 4.0 0.00 0.00 0.00 26 1012.0
20260505201117 83 330 3.0 3.0 0.00 0.00 0.00 27 1011.8
20260505200614 82 235 0.0 4.0 0.00 0.00 0.00 26 1012.0
20260505200111 81 159 1.0 8.0 0.00 0.00 0.00 28 1012.1
20260505195607 82 226 2.0 11.0 0.00 0.00 0.00 30 1012.0
20260505195105 85 282 1.0 4.0 0.00 0.00 0.00 27 1012.0
20260505194602 85 257 3.0 3.0 0.00 0.00 0.00 27 1012.0
20260505194057 84 239 0.0 4.0 0.00 0.00 0.00 26 1012.4
20260505193555 84 305 3.0 4.0 0.00 0.00 0.00 25 1012.2
20260505193052 83 233 2.0 3.0 0.00 0.00 0.00 26 1012.3
20260505192550 83 317 4.0 10.0 0.00 0.00 0.00 22 1012.4
20260505192047 85 184 2.0 4.0 0.00 0.00 0.00 25 1012.1
20260505191546 85 342 3.0 4.0 0.00 0.00 0.00 23 1012.4
20260505191043 85 209 0.0 6.0 0.00 0.00 0.00 26 1012.3
20260505190537 85 157 2.0 3.0 0.00 0.00 0.00 25 1012.4
20260505190034 85 172 2.0 3.0 0.00 0.00 0.00 27 1012.4
20260505185531 85 101 4.0 4.0 0.00 0.00 0.00 24 1012.7
20260505185027 85 126 4.0 4.0 0.00 0.00 0.00 26 1012.7
20260505184524 84 264 1.0 4.0 0.00 0.00 0.00 26 1012.6
20260505184021 84 159 2.0 5.0 0.00 0.00 0.00 28 1012.9
20260505183518 85 308 3.0 4.0 0.00 0.00 0.00 24 1012.6
20260505183015 84 307 2.0 4.0 0.00 0.00 0.00 27 1012.7
20260505182511 83 318 2.0 5.0 0.00 0.00 0.00 25 1012.9
20260505182008 82 234 0.0 7.0 0.00 0.00 0.00 24 1013.1
20260505181505 83 207 5.0 6.0 0.00 0.00 0.00 22 1013.2
20260505181002 83 293 0.0 6.0 0.00 0.00 0.00 25 1013.3
20260505180457 84 217 2.0 3.0 0.00 0.00 0.00 27 1013.2
20260505175955 84 276 1.0 5.0 0.00 0.00 0.00 26 1013.3
20260505175451 84 232 1.0 3.0 0.00 0.00 0.00 27 1013.3
20260505174947 82 220 0.0 11.0 0.00 0.00 0.00 28 1013.4
20260505174440 82 321 2.0 10.0 0.00 0.00 0.00 29 1013.4
20260505173936 82 168 2.0 4.0 0.00 0.00 0.00 30 1013.5
20260505173432 82 346 0.0 6.0 0.00 0.00 0.00 26 1013.3
20260505172929 82 175 4.0 4.0 0.00 0.00 0.00 34 1013.3
20260505172428 82 260 3.0 4.0 0.00 0.00 0.00 30 1013.3
20260505171926 81 358 2.0 5.0 0.00 0.00 0.00 33 1013.5
20260505171424 81 271 4.0 9.0 0.00 0.00 0.00 32 1013.3
20260505170920 81 268 4.0 6.0 0.00 0.00 0.00 35 1013.7
20260505170417 81 243 2.0 5.0 0.00 0.00 0.00 34 1013.5
20260505165913 80 265 4.0 8.0 0.00 0.00 0.00 39 1013.7
20260505165409 79 268 3.0 5.0 0.00 0.00 0.00 37 1013.8
20260505164904 79 249 3.0 5.0 0.00 0.00 0.00 37 1013.9
20260505164401 78 232 2.0 4.0 0.00 0.00 0.00 40 1014.0
20260505163859 77 131 1.0 3.0 0.00 0.00 0.00 40 1014.2
20260505163358 75 313 5.0 5.0 0.00 0.00 0.00 45 1014.2
20260505162856 74 255 2.0 3.0 0.00 0.00 0.00 51 1014.0
20260505162351 72 214 0.0 3.0 0.00 0.00 0.00 58 1014.4
20260505161849 71 200 1.0 3.0 0.00 0.00 0.00 58 1014.4
20260505161345 69 232 1.0 2.0 0.00 0.00 0.00 60 1014.3
20260505160842 70 318 1.0 4.0 0.00 0.00 0.00 58 1014.1
20260505160340 71 347 2.0 4.0 0.00 0.00 0.00 54 1014.5
20260505153319 69 273 2.0 4.0 0.00 0.00 0.00 56 1014.7
20260505152816 69 44 0.0 3.0 0.00 0.00 0.00 64 1014.8
20260505152313 69 137 2.0 4.0 0.00 0.00 0.00 63 1015.0
20260505151808 70 272 2.0 5.0 0.00 0.00 0.00 49 1014.9
20260505151305 68 67 2.0 2.0 0.00 0.00 0.00 63 1014.8
20260505150802 69 264 0.0 2.0 0.00 0.00 0.00 59 1015.0
20260505150259 70 163 0.0 3.0 0.00 0.00 0.00 55 1014.9
20260505140223 71 117 2.0 2.0 0.00 0.00 0.00 48 1014.9
20260505130147 65 282 0.0 3.0 0.00 0.00 0.00 54 1014.9
20260505124636 65 204 0.0 2.0 0.00 0.00 0.00 59 1014.9
20260505124133 64 154 0.0 2.0 0.00 0.00 0.00 60 1014.9
20260505123629 63 208 0.0 1.0 0.00 0.00 0.00 60 1015.1
20260505123126 62 174 2.0 2.0 0.00 0.00 0.00 63 1015.2
20260505122622 62 87 0.0 2.0 0.00 0.00 0.00 61 1015.1
20260505122120 62 140 0.0 1.0 0.00 0.00 0.00 63 1015.2
20260505121616 62 216 1.0 1.0 0.00 0.00 0.00 62 1015.1
20260505121113 61 186 0.0 2.0 0.00 0.00 0.00 60 1015.1
20260505120609 60 130 2.0 2.0 0.00 0.00 0.00 63 1015.3
20260505120105 60 201 0.0 2.0 0.00 0.00 0.00 64 1015.0
20260505115559 59 197 1.0 2.0 0.00 0.00 0.00 65 1015.2
20260505115057 57 284 0.0 2.0 0.00 0.00 0.00 70 1015.2
20260505114554 56 151 0.0 2.0 0.00 0.00 0.00 72 1015.1
20260505114050 55 231 0.0 2.0 0.00 0.00 0.00 73 1015.1
20260505113547 55 195 1.0 2.0 0.00 0.00 0.00 73 1015.2
20260505113043 55 158 0.0 2.0 0.00 0.00 0.00 74 1015.0
20260505112540 54 156 0.0 2.0 0.00 0.00 0.00 74 1015.2
20260505112039 55 148 0.0 2.0 0.00 0.00 0.00 74 1015.0
20260505111538 54 186 2.0 3.0 0.00 0.00 0.00 74 1014.7
20260505111034 55 164 2.0 2.0 0.00 0.00 0.00 73 1014.7
20260505110531 55 151 1.0 2.0 0.00 0.00 0.00 71 1014.4
20260505102003 54 192 0.0 2.0 0.00 0.00 0.00 74 1014.2
20260505101501 54 134 0.0 2.0 0.00 0.00 0.00 74 1014.3
20260505100957 54 157 0.0 2.0 0.00 0.00 0.00 74 1014.0
20260505100455 55 219 1.0 2.0 0.00 0.00 0.00 73 1014.1
20260505095951 54 158 2.0 2.0 0.00 0.00 0.00 73 1014.2
20260505095447 54 152 0.0 2.0 0.00 0.00 0.00 73 1014.3
20260505094943 54 120 0.0 2.0 0.00 0.00 0.00 75 1014.2
20260505094441 54 104 1.0 2.0 0.00 0.00 0.00 77 1014.2
20260505093936 54 84 1.0 2.0 0.00 0.00 0.00 77 1014.4
20260505093434 54 143 1.0 2.0 0.00 0.00 0.00 77 1014.0
20260505092931 54 58 0.0 2.0 0.00 0.00 0.00 78 1014.0
20260505092428 54 190 1.0 1.0 0.00 0.00 0.00 78 1014.0
20260505091926 54 122 1.0 2.0 0.00 0.00 0.00 78 1014.1
20260505091423 54 104 1.0 2.0 0.00 0.00 0.00 78 1014.2
20260505090921 54 206 0.0 2.0 0.00 0.00 0.00 77 1014.2
20260505090419 54 168 2.0 2.0 0.00 0.00 0.00 77 1014.0
20260505085916 55 147 0.0 2.0 0.00 0.00 0.00 77 1014.0
20260505085414 55 136 0.0 2.0 0.00 0.00 0.00 77 1014.1
20260505084912 55 250 0.0 1.0 0.00 0.00 0.00 77 1014.1
20260505084410 55 156 0.0 1.0 0.00 0.00 0.00 77 1014.1
20260505083908 55 171 0.0 1.0 0.00 0.00 0.00 76 1014.1
20260505083405 55 157 1.0 1.0 0.00 0.00 0.00 76 1014.0
20260505082901 55 155 0.0 2.0 0.00 0.00 0.00 75 1014.0
20260505082357 56 144 0.0 1.0 0.00 0.00 0.00 75 1013.8
20260505081854 56 161 0.0 2.0 0.00 0.00 0.00 74 1013.7
20260505081350 56 151 0.0 2.0 0.00 0.00 0.00 74 1013.7
20260505080847 56 145 0.0 2.0 0.00 0.00 0.00 73 1013.8
20260505080343 57 185 0.0 2.0 0.00 0.00 0.00 72 1013.5
20260505075839 57 156 0.0 1.0 0.00 0.00 0.00 72 1013.7
20260505075336 57 153 0.0 1.0 0.00 0.00 0.00 72 1013.6
20260505074833 57 245 0.0 1.0 0.00 0.00 0.00 72 1013.5
20260505074330 57 233 0.0 2.0 0.00 0.00 0.00 74 1013.6
20260505073828 57 125 1.0 2.0 0.00 0.00 0.00 74 1013.4
20260505073326 57 157 0.0 1.0 0.00 0.00 0.00 72 1013.5
20260505072822 58 166 0.0 1.0 0.00 0.00 0.00 71 1013.4
20260505072318 58 195 0.0 2.0 0.00 0.00 0.00 69 1013.6
20260505071814 58 187 0.0 0.0 0.00 0.00 0.00 70 1013.6
20260505071311 58 233 0.0 1.0 0.00 0.00 0.00 68 1013.6
20260505070809 58 245 0.0 2.0 0.00 0.00 0.00 69 1013.6
20260505070305 58 249 0.0 2.0 0.00 0.00 0.00 70 1013.5
20260505065800 59 135 0.0 1.0 0.00 0.00 0.00 69 1013.4
20260505065258 59 245 0.0 1.0 0.00 0.00 0.00 68 1013.4
20260505064755 58 245 0.0 2.0 0.00 0.00 0.00 70 1013.3
20260505064252 59 123 2.0 2.0 0.00 0.00 0.00 69 1013.1
20260505063749 60 238 0.0 3.0 0.00 0.00 0.00 68 1013.1
20260505063246 59 284 0.0 2.0 0.00 0.00 0.00 68 1013.3
20260505062742 58 215 0.0 1.0 0.00 0.00 0.00 72 1013.2
20260505062240 58 86 0.0 2.0 0.00 0.00 0.00 72 1013.2
20260505061736 58 160 0.0 1.0 0.00 0.00 0.00 72 1013.3
20260505061235 58 238 0.0 1.0 0.00 0.00 0.00 72 1013.0
20260505060731 58 277 0.0 1.0 0.00 0.00 0.00 73 1013.2
20260505060229 58 220 2.0 2.0 0.00 0.00 0.00 73 1013.3
20260505055724 59 215 2.0 2.0 0.00 0.00 0.00 72 1013.2
20260505055220 59 150 0.0 2.0 0.00 0.00 0.00 71 1013.2
20260505054718 59 134 0.0 1.0 0.00 0.00 0.00 70 1013.1
20260505054216 59 145 0.0 2.0 0.00 0.00 0.00 71 1013.1
20260505053714 59 350 0.0 1.0 0.00 0.00 0.00 70 1013.0
20260505053204 59 233 0.0 1.0 0.00 0.00 0.00 70 1013.1
20260505052701 59 230 0.0 2.0 0.00 0.00 0.00 71 1013.1
20260505052158 59 239 0.0 0.0 0.00 0.00 0.00 71 1013.1
20260505051656 59 320 0.0 2.0 0.00 0.00 0.00 73 1013.2
20260505051154 59 223 0.0 1.0 0.00 0.00 0.00 72 1013.2
20260505050651 59 233 0.0 2.0 0.00 0.00 0.00 72 1013.1
20260505050149 59 68 0.0 2.0 0.00 0.00 0.00 74 1013.2
20260505041624 59 224 0.0 1.0 0.00 0.00 0.00 76 1012.9
20260505041122 58 256 0.0 0.0 0.00 0.00 0.00 77 1012.9
20260505040618 58 256 0.0 0.0 0.00 0.00 0.00 78 1013.1
20260505040116 58 239 0.0 1.0 0.00 0.00 0.00 78 1012.9